Погода в Якоре

Казахстан     54°57′28″N   69°01′57″E
темп.,
°C
ветер,
м/с
пор.,
м/с
влажн.,
%
обл.,
%
осадки,
мм/ч
давл.,
гПа
погр.,
м
1 марта, пн
пн100:00−14всв5995100 1.1 1008341
03:00−15св5895100 0.7 1007325
06:00−15св5895100 1.3 1008311
09:00−17ссв479599 0.2 1010254
12:00−15ссв359499 0.3 1012281
15:00−14с349396 0.1 1013322
18:00−14ссз249598 0.1 101598
21:00−18ссз229887 0.0 101620
2 марта, вт
вт200:00−19сз129987 0.1 101720
03:00−21з1210097 0.0 101620
06:00−19зюз129898 0.1 101635
09:00−18юз2298100 0.1 101663
12:00−15юз239296 0.3 1015259
15:00−14ююз3492100 0.0 1013369
18:00−15ююз339599 0.1 101353
21:00−18ююз349719 0.0 101352
3 марта, ср
ср300:00−18ююз479838 0.0 101394
03:00−17ю4109792 0.0 1011226
06:00−18ююз6119392 0.0 1011332
09:00−17ююз61295100 0.1 1009448
12:00−13ююз71191100 0.3 1009556
15:00−11ююз71192100 0.3 1008605
18:00−9ююз71394100 1.2 1007654
21:00−7ююз71394100 0.7 1005631
4 марта, чт
чт400:00−4ююз71493100 1.1 1005639
03:00−4ююз61394100 0.3 1003581
06:00−3ююз61395100 0.7 1003584
09:00−2ююз61295100 0.6 1001652
12:00−1ююз71196100 1.3 999747
15:000юз61098100 0.8 999801
18:00−2з5989100 1.1 1000547
21:00−8зюз5119266 0.0 1003225
5 марта, пт
пт500:00−11зюз5109334 0.0 1006182
03:00−14зюз410920 0.0 1007149
06:00−15ююз410920 0.0 1007163
09:00−12ююз7158955 0.0 1006369
12:00−9юз10169078 0.1 1004758
15:00−6юз111789100 0.3 10041039
18:00−2юз111988100 0.6 10041195
21:00−1зюз101889100 0.1 10051150